Time,TemperatureF,DewpointF,PressureIn,WindDirection,WindDirectionDegrees,WindSpeedMPH,WindSpeedGustMPH,Humidity,HourlyPrecipIn,Conditions,Clouds,dailyrainin,SoftwareType,DateUTC
2013-01-23 00:02:00,24.0,14.0,30.21,North,-999,-999.0,-999.0,63,-99.99,,,-99.99,,2013-01-23 06:02:00,
2013-01-23 00:12:00,24.0,14.0,30.21,North,-999,-999.0,-999.0,64,-99.99,,,-99.99,,2013-01-23 06:12:00,
2013-01-23 00:22:00,24.0,14.0,30.21,North,-999,-999.0,-999.0,64,-99.99,,,-99.99,,2013-01-23 06:22:00,
2013-01-23 00:32:00,24.0,14.0,30.21,North,-999,-999.0,-999.0,64,-99.99,,,-99.99,,2013-01-23 06:32:00,
2013-01-23 00:43:00,24.0,14.0,30.21,North,-999,-999.0,-999.0,64,-99.99,,,-99.99,,2013-01-23 06:43:00,
2013-01-23 00:52:00,24.0,14.0,30.21,North,-999,-999.0,-999.0,64,-99.99,,,-99.99,,2013-01-23 06:52:00,
2013-01-23 01:02:00,25.0,15.0,30.21,North,-999,-999.0,-999.0,65,-99.99,,,-99.99,,2013-01-23 07:02:00,
2013-01-23 01:12:00,25.0,15.0,30.20,North,-999,-999.0,-999.0,65,-99.99,,,-99.99,,2013-01-23 07:12:00,
2013-01-23 01:22:00,25.0,15.0,30.20,North,-999,-999.0,-999.0,65,-99.99,,,-99.99,,2013-01-23 07:22:00,
2013-01-23 01:33:00,25.0,15.0,30.19,North,-999,-999.0,-999.0,65,-99.99,,,-99.99,,2013-01-23 07:33:00,
2013-01-23 01:42:00,25.0,15.0,30.19,North,-999,-999.0,-999.0,65,-99.99,,,-99.99,,2013-01-23 07:42:00,
2013-01-23 01:52:00,25.0,15.0,30.19,North,-999,-999.0,-999.0,65,-99.99,,,-99.99,,2013-01-23 07:52:00,
2013-01-23 02:02:00,25.0,15.0,30.19,North,-999,-999.0,-999.0,65,-99.99,,,-99.99,,2013-01-23 08:02:00,
2013-01-23 02:13:00,24.0,15.0,30.19,North,-999,-999.0,-999.0,66,-99.99,,,-99.99,,2013-01-23 08:13:00,
2013-01-23 02:22:00,24.0,15.0,30.19,North,-999,-999.0,-999.0,66,-99.99,,,-99.99,,2013-01-23 08:22:00,
2013-01-23 02:33:00,24.0,15.0,30.19,North,-999,-999.0,-999.0,66,-99.99,,,-99.99,,2013-01-23 08:33:00,
2013-01-23 02:42:00,24.0,14.0,30.20,North,-999,-999.0,-999.0,66,-99.99,,,-99.99,,2013-01-23 08:42:00,
2013-01-23 02:52:00,24.0,14.0,30.20,North,-999,-999.0,-999.0,67,-99.99,,,-99.99,,2013-01-23 08:52:00,
2013-01-23 03:03:00,24.0,14.0,30.20,North,-999,-999.0,-999.0,67,-99.99,,,-99.99,,2013-01-23 09:03:00,
2013-01-23 03:12:00,24.0,15.0,30.19,North,-999,-999.0,-999.0,68,-99.99,,,-99.99,,2013-01-23 09:12:00,
2013-01-23 03:22:00,24.0,15.0,30.19,North,-999,-999.0,-999.0,68,-99.99,,,-99.99,,2013-01-23 09:22:00,
2013-01-23 03:32:00,24.0,15.0,30.19,North,-999,-999.0,-999.0,68,-99.99,,,-99.99,,2013-01-23 09:32:00,
2013-01-23 03:43:00,24.0,15.0,30.19,North,-999,-999.0,-999.0,68,-99.99,,,-99.99,,2013-01-23 09:43:00,
2013-01-23 03:52:00,24.0,15.0,30.19,North,-999,-999.0,-999.0,68,-99.99,,,-99.99,,2013-01-23 09:52:00,
2013-01-23 04:03:00,24.0,15.0,30.18,North,-999,-999.0,-999.0,69,-99.99,,,-99.99,,2013-01-23 10:03:00,
2013-01-23 04:12:00,24.0,15.0,30.18,North,-999,-999.0,-999.0,69,-99.99,,,-99.99,,2013-01-23 10:12:00,
2013-01-23 04:23:00,24.0,15.0,30.18,North,-999,-999.0,-999.0,69,-99.99,,,-99.99,,2013-01-23 10:23:00,
2013-01-23 04:33:00,24.0,15.0,30.17,North,-999,-999.0,-999.0,69,-99.99,,,-99.99,,2013-01-23 10:33:00,
2013-01-23 04:43:00,24.0,15.0,30.18,North,-999,-999.0,-999.0,69,-99.99,,,-99.99,,2013-01-23 10:43:00,
2013-01-23 04:52:00,24.0,15.0,30.17,North,-999,-999.0,-999.0,68,-99.99,,,-99.99,,2013-01-23 10:52:00,
2013-01-23 05:02:00,24.0,15.0,30.17,North,-999,-999.0,-999.0,68,-99.99,,,-99.99,,2013-01-23 11:02:00,
2013-01-23 05:12:00,24.0,15.0,30.18,North,-999,-999.0,-999.0,68,-99.99,,,-99.99,,2013-01-23 11:12:00,
2013-01-23 05:23:00,24.0,15.0,30.18,North,-999,-999.0,-999.0,68,-99.99,,,-99.99,,2013-01-23 11:23:00,
2013-01-23 05:33:00,24.0,15.0,30.17,North,-999,-999.0,-999.0,69,-99.99,,,-99.99,,2013-01-23 11:33:00,
2013-01-23 05:43:00,24.0,15.0,30.17,North,-999,-999.0,-999.0,69,-99.99,,,-99.99,,2013-01-23 11:43:00,
2013-01-23 05:53:00,24.0,15.0,30.17,North,-999,-999.0,-999.0,69,-99.99,,,-99.99,,2013-01-23 11:53:00,
2013-01-23 06:03:00,24.0,16.0,30.17,North,-999,-999.0,-999.0,70,-99.99,,,-99.99,,2013-01-23 12:03:00,
2013-01-23 06:12:00,24.0,16.0,30.17,North,-999,-999.0,-999.0,70,-99.99,,,-99.99,,2013-01-23 12:12:00,
2013-01-23 06:22:00,24.0,16.0,30.17,North,-999,-999.0,-999.0,70,-99.99,,,-99.99,,2013-01-23 12:22:00,
2013-01-23 06:33:00,25.0,16.0,30.18,North,-999,-999.0,-999.0,69,-99.99,,,-99.99,,2013-01-23 12:33:00,
2013-01-23 06:43:00,25.0,16.0,30.18,North,-999,-999.0,-999.0,69,-99.99,,,-99.99,,2013-01-23 12:43:00,
2013-01-23 06:53:00,25.0,16.0,30.18,North,-999,-999.0,-999.0,69,-99.99,,,-99.99,,2013-01-23 12:53:00,
2013-01-23 07:04:00,24.0,16.0,30.18,North,-999,-999.0,-999.0,70,-99.99,,,-99.99,,2013-01-23 13:04:00,
2013-01-23 07:13:00,24.0,16.0,30.18,North,-999,-999.0,-999.0,71,-99.99,,,-99.99,,2013-01-23 13:13:00,
2013-01-23 07:23:00,24.0,16.0,30.18,North,-999,-999.0,-999.0,71,-99.99,,,-99.99,,2013-01-23 13:23:00,
2013-01-23 07:33:00,24.0,16.0,30.19,North,-999,-999.0,-999.0,72,-99.99,,,-99.99,,2013-01-23 13:33:00,
2013-01-23 07:42:00,24.0,17.0,30.18,North,-999,-999.0,-999.0,72,-99.99,,,-99.99,,2013-01-23 13:42:00,
2013-01-23 07:52:00,24.0,17.0,30.18,North,-999,-999.0,-999.0,72,-99.99,,,-99.99,,2013-01-23 13:52:00,
2013-01-23 08:00:00,27.0,18.0,30.18,North,-999,-999.0,-999.0,69,-99.99,,,-99.99,,2013-01-23 14:00:00,
2013-01-23 08:03:00,24.0,17.0,30.18,North,-999,-999.0,-999.0,72,-99.99,,,-99.99,,2013-01-23 14:03:00,
2013-01-23 08:12:00,25.0,17.0,30.18,North,-999,-999.0,-999.0,72,-99.99,,,-99.99,,2013-01-23 14:12:00,
2013-01-23 08:23:00,25.0,17.0,30.18,North,-999,-999.0,-999.0,72,-99.99,,,-99.99,,2013-01-23 14:23:00,
2013-01-23 08:33:00,26.0,18.0,30.18,North,-999,-999.0,-999.0,71,-99.99,,,-99.99,,2013-01-23 14:33:00,
2013-01-23 08:43:00,27.0,18.0,30.18,North,-999,-999.0,-999.0,69,-99.99,,,-99.99,,2013-01-23 14:43:00,
2013-01-23 08:53:00,27.0,18.0,30.18,North,-999,-999.0,-999.0,69,-99.99,,,-99.99,,2013-01-23 14:53:00,
2013-01-23 09:12:00,30.0,20.0,30.18,North,-999,-999.0,-999.0,65,-99.99,,,-99.99,,2013-01-23 15:12:00,
2013-01-23 09:23:00,30.0,20.0,30.18,North,-999,-999.0,-999.0,65,-99.99,,,-99.99,,2013-01-23 15:23:00,
2013-01-23 09:33:00,33.0,22.0,30.20,North,-999,-999.0,-999.0,63,-99.99,,,-99.99,,2013-01-23 15:33:00,
2013-01-23 09:43:00,35.0,22.0,30.20,North,-999,-999.0,-999.0,60,-99.99,,,-99.99,,2013-01-23 15:43:00,
2013-01-23 09:53:00,35.0,22.0,30.20,North,-999,-999.0,-999.0,60,-99.99,,,-99.99,,2013-01-23 15:53:00,
2013-01-23 10:03:00,38.0,25.0,30.20,North,-999,-999.0,-999.0,59,-99.99,,,-99.99,,2013-01-23 16:03:00,
2013-01-23 10:12:00,40.0,26.0,30.20,North,-999,-999.0,-999.0,57,-99.99,,,-99.99,,2013-01-23 16:12:00,
2013-01-23 10:23:00,40.0,26.0,30.20,North,-999,-999.0,-999.0,57,-99.99,,,-99.99,,2013-01-23 16:23:00,
2013-01-23 10:33:00,42.0,28.0,30.21,North,-999,-999.0,-999.0,57,-99.99,,,-99.99,,2013-01-23 16:33:00,
2013-01-23 10:42:00,42.0,28.0,30.21,North,-999,-999.0,-999.0,56,-99.99,,,-99.99,,2013-01-23 16:42:00,
2013-01-23 10:52:00,42.0,28.0,30.21,North,-999,-999.0,-999.0,56,-99.99,,,-99.99,,2013-01-23 16:52:00,
2013-01-23 11:03:00,43.0,29.0,30.21,North,-999,-999.0,-999.0,57,-99.99,,,-99.99,,2013-01-23 17:03:00,
2013-01-23 11:12:00,43.0,29.0,30.20,North,-999,-999.0,-999.0,57,-99.99,,,-99.99,,2013-01-23 17:12:00,
2013-01-23 11:23:00,43.0,29.0,30.20,North,-999,-999.0,-999.0,57,-99.99,,,-99.99,,2013-01-23 17:23:00,
2013-01-23 11:33:00,44.0,29.0,30.20,North,-999,-999.0,-999.0,54,-99.99,,,-99.99,,2013-01-23 17:33:00,
2013-01-23 11:42:00,46.0,29.0,30.20,North,-999,-999.0,-999.0,52,-99.99,,,-99.99,,2013-01-23 17:42:00,
2013-01-23 11:52:00,46.0,29.0,30.20,North,-999,-999.0,-999.0,52,-99.99,,,-99.99,,2013-01-23 17:52:00,
2013-01-23 12:03:00,48.0,31.0,30.19,North,-999,-999.0,-999.0,52,-99.99,,,-99.99,,2013-01-23 18:03:00,
2013-01-23 12:12:00,48.0,32.0,30.18,North,-999,-999.0,-999.0,52,-99.99,,,-99.99,,2013-01-23 18:12:00,
2013-01-23 12:23:00,48.0,32.0,30.18,North,-999,-999.0,-999.0,52,-99.99,,,-99.99,,2013-01-23 18:23:00,
2013-01-23 12:33:00,49.0,33.0,30.17,North,-999,-999.0,-999.0,52,-99.99,,,-99.99,,2013-01-23 18:33:00,
2013-01-23 12:43:00,50.0,33.0,30.17,North,-999,-999.0,-999.0,51,-99.99,,,-99.99,,2013-01-23 18:43:00,
2013-01-23 12:53:00,50.0,33.0,30.17,North,-999,-999.0,-999.0,51,-99.99,,,-99.99,,2013-01-23 18:53:00,
2013-01-23 13:03:00,50.0,32.0,30.15,North,-999,-999.0,-999.0,49,-99.99,,,-99.99,,2013-01-23 19:03:00,
2013-01-23 13:13:00,51.0,32.0,30.15,North,-999,-999.0,-999.0,48,-99.99,,,-99.99,,2013-01-23 19:13:00,
2013-01-23 13:23:00,51.0,32.0,30.15,North,-999,-999.0,-999.0,48,-99.99,,,-99.99,,2013-01-23 19:23:00,
2013-01-23 13:33:00,53.0,34.0,30.14,North,-999,-999.0,-999.0,48,-99.99,,,-99.99,,2013-01-23 19:33:00,
2013-01-23 13:43:00,53.0,34.0,30.13,North,-999,-999.0,-999.0,47,-99.99,,,-99.99,,2013-01-23 19:43:00,
2013-01-23 13:53:00,53.0,34.0,30.13,North,-999,-999.0,-999.0,47,-99.99,,,-99.99,,2013-01-23 19:53:00,
2013-01-23 14:03:00,54.0,34.0,30.13,North,-999,-999.0,-999.0,47,-99.99,,,-99.99,,2013-01-23 20:03:00,
2013-01-23 14:13:00,54.0,34.0,30.13,North,-999,-999.0,-999.0,46,-99.99,,,-99.99,,2013-01-23 20:13:00,
2013-01-23 14:23:00,54.0,34.0,30.13,North,-999,-999.0,-999.0,46,-99.99,,,-99.99,,2013-01-23 20:23:00,
2013-01-23 14:33:00,54.0,34.0,30.12,North,-999,-999.0,-999.0,47,-99.99,,,-99.99,,2013-01-23 20:33:00,
2013-01-23 14:43:00,54.0,35.0,30.12,North,-999,-999.0,-999.0,48,-99.99,,,-99.99,,2013-01-23 20:43:00,
2013-01-23 14:53:00,54.0,35.0,30.12,North,-999,-999.0,-999.0,48,-99.99,,,-99.99,,2013-01-23 20:53:00,
2013-01-23 15:03:00,54.0,34.0,30.11,North,-999,-999.0,-999.0,46,-99.99,,,-99.99,,2013-01-23 21:03:00,
2013-01-23 15:12:00,55.0,35.0,30.11,North,-999,-999.0,-999.0,47,-99.99,,,-99.99,,2013-01-23 21:12:00,
2013-01-23 15:23:00,55.0,35.0,30.11,North,-999,-999.0,-999.0,47,-99.99,,,-99.99,,2013-01-23 21:23:00,
2013-01-23 15:33:00,55.0,35.0,30.12,North,-999,-999.0,-999.0,46,-99.99,,,-99.99,,2013-01-23 21:33:00,
2013-01-23 15:43:00,55.0,36.0,30.12,North,-999,-999.0,-999.0,48,-99.99,,,-99.99,,2013-01-23 21:43:00,
2013-01-23 15:52:00,55.0,36.0,30.12,North,-999,-999.0,-999.0,48,-99.99,,,-99.99,,2013-01-23 21:52:00,
2013-01-23 16:02:00,55.0,35.0,30.12,North,-999,-999.0,-999.0,47,-99.99,,,-99.99,,2013-01-23 22:02:00,
2013-01-23 16:12:00,54.0,36.0,30.11,North,-999,-999.0,-999.0,49,-99.99,,,-99.99,,2013-01-23 22:12:00,
2013-01-23 16:23:00,54.0,36.0,30.11,North,-999,-999.0,-999.0,49,-99.99,,,-99.99,,2013-01-23 22:23:00,
2013-01-23 16:33:00,54.0,36.0,30.12,North,-999,-999.0,-999.0,49,-99.99,,,-99.99,,2013-01-23 22:33:00,
2013-01-23 16:42:00,54.0,36.0,30.12,North,-999,-999.0,-999.0,51,-99.99,,,-99.99,,2013-01-23 22:42:00,
2013-01-23 16:53:00,54.0,36.0,30.12,North,-999,-999.0,-999.0,51,-99.99,,,-99.99,,2013-01-23 22:53:00,
2013-01-23 17:03:00,54.0,36.0,30.11,North,-999,-999.0,-999.0,52,-99.99,,,-99.99,,2013-01-23 23:03:00,
2013-01-23 17:12:00,53.0,36.0,30.12,North,-999,-999.0,-999.0,53,-99.99,,,-99.99,,2013-01-23 23:12:00,
2013-01-23 17:23:00,53.0,36.0,30.12,North,-999,-999.0,-999.0,53,-99.99,,,-99.99,,2013-01-23 23:23:00,
2013-01-23 17:33:00,51.0,35.0,30.12,North,-999,-999.0,-999.0,54,-99.99,,,-99.99,,2013-01-23 23:33:00,
2013-01-23 17:43:00,51.0,35.0,30.12,North,-999,-999.0,-999.0,54,-99.99,,,-99.99,,2013-01-23 23:43:00,
2013-01-23 17:53:00,51.0,35.0,30.12,North,-999,-999.0,-999.0,54,-99.99,,,-99.99,,2013-01-23 23:53:00,
2013-01-23 18:03:00,48.0,34.0,30.13,North,-999,-999.0,-999.0,58,-99.99,,,-99.99,,2013-01-24 00:03:00,
2013-01-23 18:12:00,48.0,34.0,30.12,North,-999,-999.0,-999.0,59,-99.99,,,-99.99,,2013-01-24 00:12:00,
2013-01-23 18:22:00,48.0,34.0,30.12,North,-999,-999.0,-999.0,59,-99.99,,,-99.99,,2013-01-24 00:22:00,
2013-01-23 18:32:00,46.0,34.0,30.13,North,-999,-999.0,-999.0,61,-99.99,,,-99.99,,2013-01-24 00:32:00,
2013-01-23 18:42:00,45.0,33.0,30.13,North,-999,-999.0,-999.0,63,-99.99,,,-99.99,,2013-01-24 00:42:00,
2013-01-23 18:53:00,45.0,33.0,30.13,North,-999,-999.0,-999.0,63,-99.99,,,-99.99,,2013-01-24 00:53:00,
2013-01-23 19:03:00,44.0,33.0,30.14,North,-999,-999.0,-999.0,66,-99.99,,,-99.99,,2013-01-24 01:03:00,
2013-01-23 19:12:00,44.0,33.0,30.15,North,-999,-999.0,-999.0,67,-99.99,,,-99.99,,2013-01-24 01:12:00,
2013-01-23 19:23:00,44.0,33.0,30.15,North,-999,-999.0,-999.0,67,-99.99,,,-99.99,,2013-01-24 01:23:00,
2013-01-23 19:33:00,43.0,32.0,30.15,North,-999,-999.0,-999.0,66,-99.99,,,-99.99,,2013-01-24 01:33:00,
2013-01-23 19:42:00,42.0,32.0,30.16,North,-999,-999.0,-999.0,67,-99.99,,,-99.99,,2013-01-24 01:42:00,
2013-01-23 19:50:00,40.0,28.0,30.19,North,-999,-999.0,-999.0,62,-99.99,,,-99.99,,2013-01-24 01:50:00,
2013-01-23 19:52:00,42.0,32.0,30.16,North,-999,-999.0,-999.0,67,-99.99,,,-99.99,,2013-01-24 01:52:00,
2013-01-23 20:02:00,40.0,31.0,30.18,North,-999,-999.0,-999.0,71,-99.99,,,-99.99,,2013-01-24 02:02:00,
2013-01-23 20:12:00,40.0,30.0,30.18,North,-999,-999.0,-999.0,66,-99.99,,,-99.99,,2013-01-24 02:12:00,
2013-01-23 20:22:00,40.0,30.0,30.18,North,-999,-999.0,-999.0,66,-99.99,,,-99.99,,2013-01-24 02:22:00,
2013-01-23 20:33:00,40.0,28.0,30.19,North,-999,-999.0,-999.0,62,-99.99,,,-99.99,,2013-01-24 02:33:00,
2013-01-23 20:42:00,40.0,28.0,30.19,North,-999,-999.0,-999.0,62,-99.99,,,-99.99,,2013-01-24 02:42:00,
2013-01-23 21:02:00,38.0,26.0,30.20,North,-999,-999.0,-999.0,61,-99.99,,,-99.99,,2013-01-24 03:02:00,
2013-01-23 21:12:00,38.0,25.0,30.19,North,-999,-999.0,-999.0,60,-99.99,,,-99.99,,2013-01-24 03:12:00,
2013-01-23 21:22:00,38.0,25.0,30.19,North,-999,-999.0,-999.0,60,-99.99,,,-99.99,,2013-01-24 03:22:00,
2013-01-23 21:33:00,37.0,25.0,30.21,North,-999,-999.0,-999.0,60,-99.99,,,-99.99,,2013-01-24 03:33:00,
2013-01-23 21:43:00,37.0,24.0,30.21,North,-999,-999.0,-999.0,59,-99.99,,,-99.99,,2013-01-24 03:43:00,
2013-01-23 21:52:00,37.0,24.0,30.21,North,-999,-999.0,-999.0,59,-99.99,,,-99.99,,2013-01-24 03:52:00,
2013-01-23 22:02:00,37.0,23.0,30.22,North,-999,-999.0,-999.0,57,-99.99,,,-99.99,,2013-01-24 04:02:00,
2013-01-23 22:12:00,37.0,23.0,30.23,North,-999,-999.0,-999.0,58,-99.99,,,-99.99,,2013-01-24 04:12:00,
2013-01-23 22:20:00,35.0,22.0,30.24,North,-999,-999.0,-999.0,57,-99.99,,,-99.99,,2013-01-24 04:20:00,
2013-01-23 22:22:00,37.0,23.0,30.23,North,-999,-999.0,-999.0,58,-99.99,,,-99.99,,2013-01-24 04:22:00,
2013-01-23 22:32:00,36.0,23.0,30.23,North,-999,-999.0,-999.0,58,-99.99,,,-99.99,,2013-01-24 04:32:00,
2013-01-23 22:42:00,36.0,22.0,30.24,North,-999,-999.0,-999.0,57,-99.99,,,-99.99,,2013-01-24 04:42:00,
2013-01-23 22:52:00,36.0,22.0,30.24,North,-999,-999.0,-999.0,57,-99.99,,,-99.99,,2013-01-24 04:52:00,
2013-01-23 23:03:00,35.0,22.0,30.24,North,-999,-999.0,-999.0,57,-99.99,,,-99.99,,2013-01-24 05:03:00,
2013-01-23 23:12:00,35.0,22.0,30.24,North,-999,-999.0,-999.0,57,-99.99,,,-99.99,,2013-01-24 05:12:00,
2013-01-23 23:33:00,34.0,21.0,30.25,North,-999,-999.0,-999.0,58,-99.99,,,-99.99,,2013-01-24 05:33:00,
2013-01-23 23:42:00,34.0,21.0,30.25,North,-999,-999.0,-999.0,58,-99.99,,,-99.99,,2013-01-24 05:42:00,
2013-01-23 23:52:00,34.0,21.0,30.25,North,-999,-999.0,-999.0,58,-99.99,,,-99.99,,2013-01-24 05:52:00,